This demonstration page uses our WeatherBlox Daily Observations layout. Learn more.

Left ArrowRight Arrow

36.17497, -115.13722

Hourly Observations for May 3, 2017

Temp ( °F °C ) Dew Point ( °F °C ) Humidity (%) Winds ( mph kmh ) Pressure ( in mb ) Visibility ( mi km ) Precip ( " mm )
12:53 am 00:53 Clear 78 25.6 31 -0.6 18 18 ENE 7 11 29.91 1013 10 16 0.00 0.00
1:53 am 01:53 Clear 76 24.4 30 -1.1 18 18 NE 6 9 29.92 1013 10 16 0.00 0.00
2:53 am 02:53 Clear 78 25.6 30 -1.1 17 17 Calm 29.93 1014 10 16 0.00 0.00
3:53 am 03:53 Clear 74 23.3 30 -1.1 20 20 N 7 11 29.96 1015 10 16 0.00 0.00
4:53 am 04:53 Clear 75 23.9 28 -2.2 18 18 N 8 13 29.98 1015 10 16 0.00 0.00
5:53 am 05:53 Sunny 72 22.2 29 -1.7 20 20 N 8 13 30.01 1016 10 16 0.00 0.00
6:53 am 06:53 Sunny 73 22.8 30 -1.1 20 20 NNE 6 9 30.04 1017 10 16 0.00 0.00
7:53 am 07:53 Sunny 76 24.4 30 -1.1 18 18 NNW 8 13 30.06 1018 10 16 0.00 0.00
8:53 am 08:53 Sunny 78 25.6 31 -0.6 18 18 NNE 9 15 30.07 1018 10 16 0.00 0.00
9:53 am 09:53 Sunny 80 26.7 31 -0.6 17 17 N 5 7 30.06 1018 10 16 0.00 0.00
10:53 am 10:53 Sunny 82 27.8 31 -0.6 16 16 VRB 5 7 30.05 1018 10 16 0.00 0.00
11:53 am 11:53 Sunny 86 30 30 -1.1 13 13 N 7 11 30.04 1017 10 16 0.00 0.00
12:53 pm 12:53 Sunny 85 29.4 29 -1.7 13 13 WSW 6 9 30.01 1016 10 16 0.00 0.00
1:53 pm 13:53 Sunny 88 31.1 27 -2.8 11 11 VRB 5 7 30.00 1016 10 16 0.00 0.00
2:53 pm 14:53 Sunny 88 31.1 26 -3.3 10 10 ESE 6 9 29.97 1015 10 16 0.00 0.00
3:53 pm 15:53 Sunny 90 32.2 23 -5 9 9 Calm 29.95 1014 10 16 0.00 0.00
4:53 pm 16:53 Sunny 89 31.7 22 -5.6 8 8 ESE 7 11 29.94 1014 10 16 0.00 0.00
5:53 pm 17:53 Sunny 89 31.7 21 -6.1 8 8 ESE 6 9 29.93 1014 10 16 0.00 0.00
6:53 pm 18:53 Sunny 88 31.1 20 -6.7 8 8 SSE 6 9 29.93 1014 10 16 0.00 0.00
7:53 pm 19:53 Clear 85 29.4 19 -7.2 9 9 E 6 9 29.94 1014 10 16 0.00 0.00
8:53 pm 20:53 Clear 83 28.3 20 -6.7 10 10 Calm 29.96 1015 10 16 0.00 0.00
9:53 pm 21:53 Clear 79 26.1 25 -3.9 14 14 NW 5 7 29.97 1015 10 16 0.00 0.00
10:53 pm 22:53 Clear 76 24.4 31 -0.6 19 19 NW 6 9 29.97 1015 10 16 0.00 0.00
11:53 pm 23:53 Clear 74 23.3 29 -1.7 19 19 WNW 6 9 29.98 1015 10 16 0.00 0.00

Powered by AerisWeather